Location: Unspecified
(33.6682°S, 0.0000°E)
Time: 23:54:03
(UTC+00:00)

A-11 Canister half - All Passes

Search period start: 26 June 2019 00:00
Search period end: 06 July 2019 00:00
Orbit: 1526 x 1683 km, 47.3° (Epoch: 26 June)

Date Brightness Start Highest point End Pass type
(mag) Time Alt. Az. Time Alt. Az. Time Alt. Az.
26 Jun - 01:06:34 10° WNW 01:07:16 10° WNW 01:07:57 10° NW night (unlit)
26 Jun - 12:07:34 10° NNE 12:13:05 17° ENE 12:18:43 10° E daylight
26 Jun - 14:07:11 10° NW 14:16:51 69° NE 14:26:52 10° ESE daylight
26 Jun - 16:12:51 10° W 16:22:27 51° SSW 16:32:20 10° SE daylight
26 Jun - 18:20:32 10° WSW 18:29:46 38° S 18:39:05 10° ESE visible
26 Jun - 20:26:48 10° SW 20:36:52 58° SSE 20:46:49 10° ENE visible
26 Jun - 22:32:16 10° WSW 22:42:08 56° NW 22:51:47 10° NNE visible
27 Jun - 00:42:55 10° WNW 00:45:42 11° WNW 00:48:28 10° NW night (unlit)
27 Jun - 11:46:33 10° NNE 11:51:32 15° ENE 11:56:36 10° E daylight
27 Jun - 13:45:38 10° NW 13:55:13 66° NE 14:05:11 10° ESE daylight
27 Jun - 15:51:07 10° W 16:00:44 52° SSW 16:10:39 10° SE daylight
27 Jun - 17:58:47 10° WSW 18:08:00 37° S 18:17:18 10° ESE visible
27 Jun - 20:05:07 10° SW 20:15:09 56° SSE 20:25:05 10° ENE visible
27 Jun - 22:10:34 10° WSW 22:20:31 59° NW 22:30:15 10° NNE visible
28 Jun - 00:20:18 10° W 00:24:08 13° WNW 00:27:57 10° NW night (unlit)
28 Jun - 11:25:38 10° NNE 11:30:00 14° ENE 11:34:23 10° E daylight
28 Jun - 13:24:05 10° NNW 13:33:36 63° NE 13:43:28 10° ESE daylight
28 Jun - 15:29:23 10° W 15:39:01 54° SSW 15:48:57 10° SE daylight
28 Jun - 17:37:03 10° WSW 17:46:14 37° S 17:55:32 10° ESE visible
28 Jun - 19:43:27 10° SW 19:53:26 55° SSE 20:03:20 10° ENE visible
28 Jun - 21:48:52 10° WSW 21:58:53 62° NW 22:08:42 10° NNE visible
28 Jun - 23:57:58 10° W 00:02:35 14° WNW 00:07:09 10° NNW night (unlit)
29 Jun - 11:04:54 10° NE 11:08:26 12° ENE 11:12:01 10° E daylight
29 Jun - 13:02:34 10° NNW 13:11:59 59° NE 13:21:46 10° ESE daylight
29 Jun - 15:07:40 10° WNW 15:17:18 55° SSW 15:27:16 10° SE daylight
29 Jun - 17:15:18 10° WSW 17:24:28 37° S 17:33:45 10° ESE visible
29 Jun - 19:21:47 10° SW 19:31:43 53° SSE 19:41:35 10° E visible
29 Jun - 21:27:10 10° WSW 21:37:15 65° NW 21:47:09 10° NE visible
29 Jun - 23:35:45 10° W 23:41:01 15° WNW 23:46:13 10° NNW night (unlit)
30 Jun - 10:44:26 10° NE 10:46:54 11° ENE 10:49:21 10° ENE daylight
30 Jun - 12:41:03 10° NNW 12:50:22 56° NE 13:00:04 10° ESE daylight
30 Jun - 14:45:58 10° WNW 14:55:35 57° SSW 15:05:35 10° SE daylight
30 Jun - 16:53:32 10° WSW 17:02:41 37° S 17:11:58 10° ESE daylight
30 Jun - 19:00:05 10° SW 19:09:59 51° SSE 19:19:51 10° E visible
30 Jun - 21:05:29 10° WSW 21:15:37 69° NW 21:25:35 10° NE visible
30 Jun - 23:13:39 10° W 23:19:27 17° WNW 23:25:12 10° NNW visible
01 Jul - 12:19:33 10° NNW 12:28:46 53° NE 12:38:20 10° ESE daylight
01 Jul - 14:24:15 10° WNW 14:33:54 59° SSW 14:43:54 10° SE daylight
01 Jul - 16:31:48 10° WSW 16:40:55 37° S 16:50:13 10° ESE daylight
01 Jul - 18:38:26 10° SW 18:48:15 50° SSE 18:58:04 10° E visible
01 Jul - 20:43:48 10° WSW 20:53:58 72° NW 21:04:00 10° NE visible
01 Jul - 22:51:36 10° W 22:57:52 18° WNW 23:04:05 10° NNW visible
02 Jul - 11:58:03 10° NNW 12:07:10 50° NE 12:16:37 10° ESE daylight
02 Jul - 14:02:33 10° WNW 14:12:12 61° SSW 14:22:13 10° SE daylight
02 Jul - 16:10:03 10° WSW 16:19:09 38° S 16:28:27 10° ESE daylight
02 Jul - 18:16:45 10° SW 18:26:31 49° SSE 18:36:19 10° E visible
02 Jul - 20:22:07 10° SW 20:32:19 75° NW 20:42:24 10° NE visible
02 Jul - 22:29:37 10° W 22:36:18 20° WNW 22:42:55 10° NNW visible
03 Jul - 11:36:35 10° NNW 11:45:35 47° NE 11:54:54 10° ESE daylight
03 Jul - 13:40:52 10° WNW 13:50:30 63° SSW 14:00:32 10° SE daylight
03 Jul - 15:48:18 10° WSW 15:57:23 38° S 16:06:42 10° ESE daylight
03 Jul - 17:55:05 10° SW 18:04:47 47° SSE 18:14:32 10° E visible
03 Jul - 20:00:27 10° SW 20:10:40 79° NW 20:20:48 10° NE visible
03 Jul - 22:07:40 10° W 22:14:43 22° NW 22:21:44 10° N visible
04 Jul - 11:15:07 10° NNW 11:23:59 45° NE 11:33:10 10° ESE daylight
04 Jul - 13:19:11 10° WNW 13:28:49 65° SSW 13:38:51 10° SE daylight
04 Jul - 15:26:33 10° WSW 15:35:38 38° S 15:44:56 10° ESE daylight
04 Jul - 17:33:23 10° SW 17:43:02 46° SSE 17:52:44 10° E visible
04 Jul - 19:38:46 10° SW 19:49:01 82° NW 19:59:10 10° NE visible
04 Jul - 21:45:46 10° WSW 21:53:09 23° NW 22:00:29 10° N visible
05 Jul - 10:53:40 10° NNW 11:02:24 42° NE 11:11:26 10° ESE daylight
05 Jul - 12:57:31 10° WNW 13:07:09 68° SSW 13:17:11 10° SE daylight
05 Jul - 15:04:48 10° WSW 15:13:52 38° S 15:23:11 10° ESE daylight
05 Jul - 17:11:44 10° SW 17:21:18 45° SSE 17:30:58 10° E visible
05 Jul - 19:17:07 10° SW 19:27:22 85° NW 19:37:33 10° NE visible
05 Jul - 21:23:53 10° WSW 21:31:33 25° NW 21:39:11 10° N visible
